Tracking 17921 objects as of 18-January-2017
HD Live streaming from Space Station
objects crossing your sky now

CZ-3C R/B

Track CZ-3C R/B now!
10-day predictions


NORAD ID: 36591
Int'l Code: 2010-024B
Perigee: 190.4 km
Apogee: 17,891.5 km
Inclination: 20.7 °
Period: 317.4 minutes
Semi major axis: 15411 km
RCS: 15.0139 m2 (large)
Launch date: June 2, 2010
Source: People's Republic of China (PRC)
Launch site: Xichang Space Center, China (XSC)

Note: This is a ROCKET BODY
Your satellite tracking list
Your tracking list is empty





NASA's NSSDC Master Catalog

Two Line Element Set (TLE):
1 36591U 10024B   17018.42461821  .00046525  79587-7  76597-3 0  9998
2 36591  20.7284  39.5586 5742673  50.6774 347.6833  4.53750119 79878
Source of the keplerian elements: AFSPC